This is the latest recevied weather packets stored in our database for station/object KC3BHK-2. If no packets are shown the sender has not sent any weather packets the latest 1 day(s).
| Time | Temp. | Humidity | Pressure | Rain* | Wind** | Luminosity | Snow |
|---|---|---|---|---|---|---|---|
| 1777997241 | 27.22° C | - | - | 0 mm | 3.13 m/s, 236° | - | - |
| 1777996936 | 26.67° C | - | - | 0 mm | 4.02 m/s, 253° | - | - |
| 1777996629 | 26.11° C | - | - | 0 mm | 4.47 m/s, 226° | - | - |
| 1777996324 | 27.22° C | - | - | 0 mm | 4.02 m/s, 228° | - | - |
| 1777996020 | 26.67° C | - | - | 0 mm | 4.02 m/s, 198° | - | - |
| 1777995715 | 27.22° C | - | - | 0 mm | 7.15 m/s, 184° | - | - |
| 1777995411 | 26.67° C | - | - | 0 mm | 5.81 m/s, 159° | - | - |
| 1777995106 | 26.67° C | - | - | 0 mm | 6.26 m/s, 163° | - | - |
| 1777994797 | 26.67° C | - | - | 0 mm | 5.36 m/s, 212° | - | - |
| 1777994493 | 26.67° C | - | - | 0 mm | 6.26 m/s, 269° | - | - |
| 1777994188 | 26.11° C | - | - | 0 mm | 4.92 m/s, 181° | - | - |
| 1777993884 | 26.11° C | - | - | 0 mm | 3.58 m/s, 217° | - | - |
| 1777993579 | 26.11° C | - | - | 0 mm | 6.26 m/s, 194° | - | - |
| 1777993275 | 26.11° C | - | - | 0 mm | 6.71 m/s, 186° | - | - |
| 1777992967 | 25.56° C | - | - | 0 mm | 3.13 m/s, 204° | - | - |
| 1777992662 | 25° C | - | - | 0 mm | 4.47 m/s, 204° | - | - |
| 1777992358 | 25.56° C | - | - | 0 mm | 2.68 m/s, 198° | - | - |
| 1777992053 | 25.56° C | - | - | 0 mm | 4.47 m/s, 191° | - | - |
| 1777991748 | 26.11° C | - | - | 0 mm | 3.58 m/s, 186° | - | - |
| 1777991444 | 25° C | - | - | 0 mm | 4.47 m/s, 195° | - | - |
| 1777991136 | 24.44° C | - | - | 0 mm | 4.02 m/s, 183° | - | - |
| 1777990832 | 25° C | - | - | 0 mm | 3.58 m/s, 207° | - | - |
| 1777990223 | 23.89° C | - | - | 0 mm | 2.24 m/s, 172° | - | - |
| 1777989918 | 23.89° C | - | - | 0 mm | 3.58 m/s, 215° | - | - |
| 1777989614 | 23.33° C | - | - | 0 mm | 2.24 m/s, 181° | - | - |
* Rain latest hour (hover to see other rain measurements)
** Current wind speed in m/s (hover to see current wind gust speed)